GFSMW_sfc_dewp_000.txt.gz
Dewpoint
62 63 64 66 67 68 70 72 72 73 73 72 72 71 71 71 71 72 72 72 71 72 71 71 70 70 69 68 68 67 67 66 67 66 65 64 64 64 64 65 66 64 65
60 61 63 65 65 67 70 71 72 72 73 72 72 72 71 71 72 72 72 72 72 72 70 70 69 70 69 68 67 67 66 66 67 65 63 61 61 62 63 64 64 63 63
59 60 61 64 65 66 69 70 71 72 73 72 72 72 72 72 72 72 72 72 71 71 71 70 70 68 67 66 66 66 66 65 66 66 64 60 59 62 62 63 63 63 64
59 59 60 62 64 65 68 70 70 71 72 72 71 71 70 70 70 69 71 71 70 69 68 68 67 66 66 66 66 67 67 66 64 65 66 65 64 61 59 60 60 60 60
58 59 60 61 63 65 67 68 69 70 71 72 72 71 70 70 66 66 68 68 66 65 66 66 66 67 65 65 66 66 66 66 65 64 64 63 63 63 60 57 57 58 62
58 59 60 61 63 65 66 68 69 70 71 72 72 71 70 68 65 65 66 64 63 63 64 65 67 66 65 65 65 65 65 65 66 66 64 63 61 61 60 59 58 58 58
59 59 60 61 63 65 66 68 69 69 71 72 72 72 71 67 65 64 64 62 61 63 64 66 65 64 63 64 64 65 65 64 65 65 64 64 63 63 62 60 59 58 58
59 59 60 61 63 65 66 68 69 69 71 72 72 73 71 66 64 64 62 62 62 63 64 63 63 61 62 63 64 64 64 64 65 64 64 64 64 63 62 61 59 54 54
58 60 61 62 63 64 66 68 69 69 71 71 72 70 68 64 63 63 62 62 63 62 63 62 63 61 61 64 64 63 64 64 64 65 64 63 63 61 62 61 60 57 52
58 59 62 62 63 64 65 67 68 69 70 70 70 68 66 63 62 62 62 61 61 62 62 62 62 62 62 63 64 63 63 64 63 63 63 64 64 62 61 59 60 58 56
56 58 62 63 64 64 65 67 68 69 70 69 67 65 63 62 61 62 62 61 61 62 62 62 62 62 62 63 63 63 63 64 64 64 64 64 64 62 61 60 59 58 57
56 58 61 63 64 64 64 66 67 68 69 69 66 64 61 62 61 62 63 62 62 62 62 62 63 63 63 63 63 63 64 63 63 63 63 63 62 62 62 59 60 60 59
56 57 60 62 63 63 64 65 67 67 68 68 65 63 62 63 63 63 63 63 62 61 61 63 63 62 62 61 61 63 63 63 63 63 63 62 61 61 61 60 60 60 60
55 57 58 60 61 62 64 65 66 67 68 66 64 63 63 62 64 64 63 63 62 62 62 62 62 61 60 60 61 62 62 62 62 63 63 62 61 61 61 61 61 61 60
52 56 57 59 60 61 63 64 65 67 67 66 64 64 64 64 64 64 64 63 62 62 62 62 61 61 60 59 62 63 62 63 63 63 63 61 61 62 62 62 61 60 59
50 51 55 58 59 60 61 64 66 66 68 67 65 66 65 65 65 65 65 63 62 62 62 61 61 61 60 60 61 63 62 63 63 61 61 59 59 60 60 61 62 62 60
51 52 52 55 56 58 61 64 66 68 68 67 67 66 65 64 64 65 65 63 62 62 61 61 61 61 62 59 59 61 64 62 60 60 60 58 59 60 58 58 59 60 60
53 53 53 55 57 58 60 64 66 68 68 68 68 66 64 64 64 63 62 63 62 61 61 62 62 62 62 58 58 60 63 62 60 59 59 59 59 57 58 58 58 57 57
54 56 56 56 59 61 62 64 66 67 68 68 66 66 65 64 65 63 63 62 63 63 62 63 63 62 62 58 57 59 62 61 60 59 57 56 58 56 55 56 56 55 55
53 55 57 59 61 63 64 64 65 67 67 67 66 66 65 63 63 64 64 63 63 63 64 63 62 60 62 58 58 58 61 59 57 57 57 55 54 53 52 54 54 54 53
57 59 62 63 63 64 65 64 64 65 67 66 66 67 66 66 65 64 63 63 64 63 63 62 60 61 62 62 57 54 59 57 56 55 54 54 52 50 49 50 54 53 53
57 59 61 63 65 64 64 63 64 65 66 66 66 65 65 65 63 61 61 62 61 60 60 61 59 59 61 56 55 52 54 55 56 54 52 53 48 48 49 51 50 49 50
60 63 64 64 63 63 64 63 63 64 64 63 63 64 63 63 62 61 61 61 60 60 60 61 61 62 58 55 51 51 51 52 50 50 49 48 46 46 49 50 49 49 50
61 63 63 62 61 62 62 63 64 64 63 62 62 63 63 62 61 62 62 61 60 59 61 61 61 59 56 54 51 50 50 50 48 46 46 49 50 49 48 48 47 48 48
62 62 61 61 62 63 62 63 64 62 61 61 61 61 61 62 62 61 60 61 59 57 61 60 59 56 54 51 48 48 48 48 46 45 50 51 48 46 44 42 43 44 43
62 61 61 62 62 61 62 62 62 62 62 61 60 60 61 61 60 54 52 46 45 45 44 46 51 50 47 43 42 40 40 40 42 46 48 46 43 42 40 39 37 38 38

GFSMW_sfc_dewp_003.txt.gz
Dewpoint
65 67 68 69 70 72 72 74 74 75 75 73 72 73 70 73 73 73 75 75 75 74 75 75 73 73 70 71 71 70 69 67 69 66 61 64 65 63 63 62 58 57 59
64 66 67 68 69 71 72 73 74 75 76 74 75 73 73 73 72 73 75 74 74 74 74 74 71 72 69 71 70 70 67 67 69 65 65 57 60 62 60 58 52 57 56
62 64 65 67 68 70 72 73 75 76 76 76 75 75 74 74 73 73 73 73 74 74 74 73 71 71 69 65 69 68 69 65 68 68 63 57 55 58 61 60 55 57 55
61 62 63 65 67 69 70 73 74 76 76 77 75 75 71 70 71 73 73 73 74 73 72 72 70 71 68 69 68 68 69 69 65 66 67 67 64 56 54 56 56 54 52
59 60 62 64 65 67 69 71 75 76 76 76 76 74 73 72 72 72 73 75 74 73 70 70 70 70 68 69 68 70 69 67 65 64 65 65 63 64 58 51 52 54 56
58 60 61 63 65 66 68 70 74 75 75 76 76 75 75 74 72 72 69 69 71 69 69 68 69 70 69 68 66 69 68 67 67 66 65 60 57 56 56 54 55 55 55
58 59 61 62 64 66 68 69 73 74 74 74 75 75 75 75 75 74 70 70 69 67 67 68 69 68 70 67 67 68 67 67 65 67 62 63 60 61 60 58 55 55 55
56 58 61 63 65 66 68 69 71 73 73 73 75 76 75 73 73 73 70 68 68 67 67 67 68 69 67 66 67 64 63 66 65 67 67 62 62 62 61 60 58 54 54
56 58 60 62 65 66 69 70 71 72 73 72 74 75 76 75 74 74 72 69 70 66 67 67 68 67 64 65 67 61 64 65 66 65 66 64 62 62 62 63 61 58 54
57 58 60 62 64 65 67 69 70 72 72 72 73 73 74 75 75 74 71 69 68 67 67 67 66 65 64 64 67 63 64 65 62 62 66 66 63 63 66 65 61 60 57
58 59 61 62 64 65 66 68 69 71 71 72 73 74 74 74 74 72 71 68 68 67 67 67 65 65 65 65 66 66 64 64 65 66 66 66 67 63 62 63 63 60 59
60 60 61 62 62 64 65 65 67 67 70 72 73 73 73 71 70 71 67 67 67 67 67 66 66 65 65 65 66 65 61 63 64 64 65 64 62 66 65 62 64 61 62
58 60 60 63 63 64 67 65 67 66 67 70 70 71 71 70 71 65 66 65 66 66 65 65 66 65 65 66 66 65 63 64 64 64 64 64 65 65 61 63 61 59 64
59 60 61 65 66 67 68 68 67 66 67 68 69 71 70 69 67 67 65 66 65 65 65 66 67 66 66 65 64 63 64 65 64 65 65 65 65 64 63 62 63 62 61
57 60 61 66 67 68 68 68 67 68 69 70 69 70 70 69 68 66 65 64 65 65 64 64 66 66 64 60 63 64 64 65 65 65 66 65 65 63 62 59 62 62 60
55 58 60 62 64 65 66 66 67 68 70 70 70 70 69 68 67 68 65 64 64 64 65 65 65 65 62 60 61 63 64 65 66 65 65 65 63 63 61 61 61 62 61
55 57 59 61 63 63 65 65 67 68 69 70 70 69 69 67 68 67 67 65 63 64 64 65 64 66 65 60 60 62 63 64 65 66 65 63 59 61 60 59 59 59 60
55 56 55 59 62 60 61 64 66 69 70 70 70 69 68 68 68 68 67 66 64 64 65 65 66 65 65 59 58 61 65 65 65 65 65 63 63 61 59 59 58 58 59
56 58 57 59 62 61 63 65 66 68 69 69 70 69 68 68 67 67 67 67 65 65 66 64 65 65 65 58 58 61 64 64 63 65 64 62 61 58 56 56 57 58 58
58 59 61 61 63 64 64 66 66 68 69 69 70 69 68 67 66 67 67 66 66 65 64 65 66 63 66 57 57 61 62 63 63 63 62 56 57 53 53 57 57 56 56
60 62 62 63 65 67 66 67 68 68 69 70 69 69 69 68 68 68 67 66 66 65 66 66 66 65 65 64 54 55 63 63 61 59 58 58 52 51 50 51 57 55 52
61 62 64 66 67 67 68 68 69 70 69 70 69 69 68 67 66 67 66 66 66 66 66 65 64 62 64 56 56 54 55 60 61 59 57 55 49 47 49 51 50 50 49
64 63 63 66 67 68 68 68 68 68 69 69 67 68 68 67 66 65 65 63 64 63 63 60 59 60 63 62 53 51 52 54 57 55 49 47 46 46 49 50 49 48 49
64 65 66 66 66 67 67 67 68 69 68 67 67 68 67 66 65 63 63 61 60 62 62 62 59 61 60 59 56 54 52 50 51 49 50 49 50 49 50 48 48 47 46
65 66 66 67 67 67 67 68 68 68 67 67 67 66 65 64 64 61 59 61 63 58 61 59 59 60 59 57 53 52 53 53 49 49 51 52 51 50 50 48 47 46 44
66 66 67 67 66 66 67 67 68 68 67 66 65 64 62 61 60 59 57 45 45 45 45 45 56 55 48 44 42 42 41 41 43 47 48 48 48 48 47 45 43 42 40

GFSMW_sfc_dewp_006.txt.gz
Dewpoint
60 63 65 66 67 69 71 73 73 74 76 73 69 69 67 69 70 70 74 74 73 73 74 70 72 72 70 69 69 65 65 59 64 59 58 60 62 62 62 60 54 57 58
59 63 65 65 66 68 71 73 74 75 76 71 72 70 70 68 70 70 73 73 73 74 73 73 71 72 66 69 67 67 61 61 63 60 58 53 57 58 57 56 52 55 53
58 61 63 64 65 68 71 73 75 75 76 76 73 73 72 73 70 70 72 74 74 74 74 74 71 70 65 59 66 66 65 58 64 65 59 53 51 52 56 58 54 56 52
59 60 62 64 64 67 70 73 75 76 76 77 74 76 70 67 65 68 67 70 74 73 73 73 70 68 63 67 65 65 65 65 60 61 62 64 63 53 51 54 54 56 54
57 59 61 62 64 66 68 71 75 76 77 76 77 73 73 67 66 67 72 74 73 73 70 72 69 67 64 68 68 67 67 63 60 58 60 63 58 62 54 49 52 54 55
53 58 60 62 63 65 67 69 74 77 76 76 76 76 75 72 67 70 68 66 66 69 72 71 69 67 65 67 66 66 66 65 64 61 62 56 54 54 53 50 52 52 54
52 55 58 60 63 65 66 68 73 75 76 76 75 76 75 75 74 72 68 67 63 64 69 72 70 65 68 67 66 66 65 65 63 65 59 58 57 56 54 53 52 51 53
50 53 57 59 63 64 66 68 71 74 75 75 76 77 77 73 72 72 67 65 63 62 67 71 69 67 67 67 65 61 61 63 62 64 65 59 57 56 56 54 54 53 52
52 52 56 59 61 64 67 70 73 73 73 73 75 76 77 75 72 74 73 67 70 63 68 69 68 65 66 65 65 60 63 62 63 62 63 61 56 55 55 56 58 56 52
52 51 54 57 60 62 65 68 70 72 72 72 73 73 74 75 75 74 74 73 70 70 68 68 65 65 65 64 66 62 63 63 58 56 61 63 58 58 57 57 56 56 55
52 53 53 55 59 61 63 65 68 70 71 72 74 73 73 73 75 74 75 74 73 71 69 69 66 65 64 65 65 65 62 61 62 61 63 64 66 60 56 55 55 54 54
52 55 55 56 58 61 61 62 65 67 69 72 74 72 73 73 73 75 75 74 74 70 69 68 67 67 64 65 65 63 61 61 60 61 63 63 60 64 65 59 62 59 60
53 56 56 58 59 60 63 62 64 64 66 69 70 71 72 72 73 74 74 74 71 69 67 67 68 67 67 65 65 65 64 62 61 62 63 63 63 64 60 61 58 55 56
56 58 58 61 62 64 67 67 64 64 65 66 69 72 72 72 73 74 72 70 69 68 67 67 67 65 66 66 65 64 64 62 61 63 63 63 63 63 63 61 62 62 59
56 58 59 64 68 68 68 68 66 67 66 68 68 70 73 73 73 73 71 68 68 67 63 66 63 65 66 63 65 64 62 63 63 63 63 64 64 63 63 58 62 63 58
55 58 61 63 66 66 68 68 69 68 69 70 69 71 73 74 73 73 70 69 68 66 66 64 63 63 63 59 61 63 62 63 64 64 65 66 66 65 63 62 62 61 61
55 58 60 62 65 66 68 68 69 69 70 71 71 72 73 73 72 71 70 68 67 67 65 64 64 64 65 60 60 62 61 62 63 66 66 65 63 64 63 62 61 61 60
55 58 57 61 65 64 64 66 68 70 70 72 72 72 72 72 71 71 69 68 65 65 66 66 66 65 64 61 60 62 64 65 66 66 65 65 64 65 63 63 60 60 60
56 58 59 62 65 63 65 66 67 68 69 70 71 72 71 71 69 69 69 69 66 65 66 66 66 66 66 58 58 62 63 64 65 66 65 65 65 61 57 59 59 59 59
56 58 59 61 62 63 63 65 65 68 69 70 71 71 71 71 70 70 70 69 68 66 64 65 66 63 68 57 56 60 61 65 62 64 65 59 61 54 54 58 58 57 57
60 61 61 60 63 63 64 65 66 66 68 70 71 71 71 71 71 71 70 69 68 67 67 66 66 67 65 65 55 56 64 58 61 60 65 63 54 52 51 52 56 56 56
58 57 61 64 65 65 66 67 68 70 71 71 71 70 71 69 69 70 69 67 68 68 66 69 68 67 67 60 55 54 56 60 60 65 58 56 49 48 50 51 51 51 49
56 58 61 65 67 69 69 69 72 72 72 70 69 70 70 69 69 68 67 65 67 64 65 67 64 69 64 61 54 53 53 56 61 59 51 48 47 47 47 51 50 49 50
60 60 62 65 68 70 70 71 71 71 71 70 70 69 69 69 68 67 67 66 64 63 67 66 64 64 64 61 59 58 58 52 54 51 51 52 51 50 51 51 50 50 50
62 62 63 66 68 69 70 70 70 70 69 69 69 67 66 67 67 63 59 62 61 57 60 60 61 60 64 59 55 53 55 55 51 54 53 51 51 50 51 51 50 49 47
65 66 66 68 69 69 69 70 70 70 69 66 65 64 64 65 65 63 60 44 45 46 46 45 55 58 50 45 42 41 42 43 44 48 49 47 48 48 48 48 46 45 44

GFSMW_sfc_dewp_009.txt.gz
Dewpoint
56 58 61 62 63 65 68 71 73 77 73 70 75 70 67 69 67 67 76 74 74 75 74 71 73 71 71 72 68 64 65 60 62 58 58 58 60 60 59 56 54 56 56
53 58 61 61 62 65 69 73 75 77 76 72 74 71 70 67 65 68 74 72 75 74 74 74 70 71 66 68 67 66 61 59 61 59 56 54 59 64 55 55 53 55 53
50 56 60 62 63 65 69 73 76 77 77 77 75 74 75 70 70 68 70 71 73 73 74 73 73 71 67 56 67 65 64 59 61 65 59 53 53 57 59 59 54 56 54
51 54 59 62 62 65 68 74 77 78 77 78 74 77 70 67 63 65 65 69 74 72 72 74 70 70 63 69 66 63 65 65 60 59 59 62 61 54 51 58 56 55 54
50 52 56 61 62 64 66 71 77 78 78 78 77 72 73 66 65 63 73 75 76 71 69 70 70 68 62 68 68 66 67 64 60 58 57 63 57 60 53 50 52 54 54
49 54 55 59 61 63 65 70 77 79 79 79 77 77 77 73 66 67 66 67 67 69 70 69 70 68 66 67 66 67 67 66 65 61 61 56 54 53 53 51 54 52 53
49 51 56 57 62 65 67 70 76 78 78 77 77 77 77 78 76 73 68 70 62 64 73 72 71 67 69 67 67 68 67 65 63 66 60 62 58 56 53 52 51 51 53
49 49 54 58 63 64 68 70 74 77 78 77 78 79 78 71 70 73 68 65 63 64 74 71 70 69 67 67 68 63 62 66 63 64 67 59 60 58 54 54 59 59 57
48 50 51 55 61 63 68 70 74 76 77 75 78 78 78 77 72 75 75 68 71 64 67 70 69 68 66 67 67 61 65 64 64 65 67 62 57 55 54 56 63 62 57
47 49 50 53 58 60 65 69 72 75 75 75 76 76 77 78 77 78 76 74 72 72 71 71 70 68 68 68 69 65 66 66 61 58 65 66 58 59 56 61 57 55 53
45 49 50 52 56 58 62 65 69 73 74 74 75 76 75 76 77 76 76 76 74 74 72 73 71 68 68 68 69 67 65 65 67 66 64 65 67 60 56 55 56 53 55
44 49 50 52 54 58 59 61 64 66 70 73 75 76 76 76 75 77 77 77 76 75 73 72 71 68 67 66 68 66 64 63 63 63 66 64 60 68 69 59 67 63 63
41 48 50 52 54 56 60 58 62 61 64 71 71 74 74 75 75 76 76 77 77 75 72 72 72 68 68 68 68 68 67 64 64 64 65 64 66 68 62 65 62 60 61
49 48 52 55 57 60 63 63 61 59 61 65 67 72 74 75 74 76 77 77 77 76 73 72 70 69 68 68 67 67 67 67 66 66 65 65 66 67 68 66 68 65 62
49 53 54 61 65 65 66 66 63 65 63 68 68 71 75 75 76 76 77 77 76 75 73 71 69 69 65 62 68 65 65 67 65 64 64 65 66 65 65 64 65 67 61
38 53 57 59 65 66 68 68 68 67 67 71 70 73 76 77 76 77 78 77 75 74 72 69 67 65 61 60 62 65 62 66 66 65 66 67 65 64 63 63 63 63 64
38 51 56 60 63 64 69 69 70 69 71 73 74 75 77 77 78 77 76 75 73 73 71 68 64 64 66 62 61 63 62 64 65 68 67 64 61 63 62 63 63 62 61
41 48 53 60 65 63 64 68 69 73 74 75 75 76 77 77 77 76 75 74 72 72 69 67 66 67 67 61 60 63 64 65 65 67 68 68 67 65 66 65 63 64 64
39 49 55 60 68 66 69 70 69 72 72 72 74 75 74 75 74 74 73 72 71 70 67 66 66 68 68 59 58 62 65 65 67 67 67 66 67 63 60 63 61 61 61
40 54 58 61 65 68 66 68 68 69 70 72 72 74 75 74 72 73 73 72 72 70 66 65 68 66 68 58 57 61 64 64 65 68 69 62 63 57 56 61 60 60 60
55 60 61 66 68 68 66 69 69 68 68 70 71 73 73 73 73 73 73 72 72 70 69 67 69 69 68 67 56 56 65 61 60 63 63 63 55 54 53 53 59 58 57
58 59 63 66 66 68 69 70 71 72 73 73 72 73 73 71 71 72 72 71 71 69 69 69 69 66 70 61 55 54 55 60 62 64 63 65 54 53 52 51 53 52 51
60 60 61 66 66 70 70 71 75 74 74 73 73 72 72 72 72 72 70 68 69 67 67 65 66 69 71 68 56 54 55 56 60 63 54 53 50 49 47 49 52 52 50
60 61 63 65 68 70 70 72 73 73 73 72 71 71 70 69 69 68 67 66 65 65 65 65 67 67 66 65 62 60 60 56 57 55 55 53 52 51 53 52 52 52 52
62 63 64 66 68 70 71 70 72 72 70 71 71 70 68 68 67 64 63 65 62 60 62 64 65 61 59 63 57 57 59 58 55 57 55 54 53 51 53 54 56 54 51
63 65 65 67 69 69 70 71 71 71 69 69 67 67 66 66 66 63 58 45 46 45 45 46 54 57 50 45 43 42 43 44 46 52 51 49 48 47 48 50 51 49 48

GFSMW_sfc_dewp_012.txt.gz
Dewpoint
55 58 60 60 62 67 70 72 73 76 76 75 72 72 73 73 72 73 76 75 76 77 77 76 75 74 74 68 70 70 68 68 68 66 65 66 65 65 65 61 61 61 62
52 57 60 60 62 66 69 73 74 77 76 75 75 74 73 73 71 73 75 76 76 78 75 76 76 74 74 73 71 69 68 67 69 65 65 61 63 62 58 61 59 59 61
49 57 60 60 63 66 70 73 75 76 76 76 75 76 76 76 74 73 75 75 76 76 74 76 76 75 72 71 71 70 69 66 69 67 65 62 60 63 64 63 61 61 61
50 55 58 62 62 65 70 73 75 76 76 76 75 74 71 72 71 72 73 74 76 76 76 76 76 74 72 73 71 70 69 70 66 67 65 66 64 61 60 64 62 62 60
49 51 57 61 62 65 69 72 76 76 76 76 75 74 74 71 72 72 76 75 76 75 74 76 75 73 70 73 71 70 69 70 68 66 67 67 66 65 60 58 61 62 62
49 52 57 61 63 64 68 70 76 76 76 77 76 76 74 72 71 71 73 73 74 73 75 74 74 73 71 72 71 71 70 69 70 68 68 66 63 61 62 61 60 59 61
50 52 55 60 63 65 67 70 75 76 76 77 76 76 76 74 75 77 73 72 70 71 74 74 73 72 72 73 72 72 71 69 68 70 67 65 64 65 64 61 60 59 62
48 51 55 59 63 64 67 70 73 75 76 76 77 77 76 75 74 74 74 73 71 70 73 72 72 73 71 71 71 70 67 69 68 67 68 67 66 65 63 62 62 59 60
49 50 56 57 63 64 67 69 74 75 76 76 77 77 77 76 74 75 74 74 74 73 71 72 73 71 71 71 72 68 68 69 70 69 68 67 65 65 65 65 64 62 58
50 51 52 58 61 64 66 69 72 75 76 76 76 76 77 76 75 75 75 73 74 73 73 73 72 71 70 69 71 67 69 68 68 67 68 67 66 66 66 63 63 63 60
43 49 52 54 60 63 65 67 70 74 76 76 76 76 76 76 75 76 75 75 74 73 73 73 71 71 70 70 70 69 67 67 67 67 67 66 68 66 65 66 65 62 62
44 47 52 53 57 61 63 66 69 71 74 75 76 76 76 76 76 75 76 75 76 74 73 73 72 71 68 70 68 66 65 67 67 67 67 66 64 68 68 67 65 65 65
54 48 49 54 56 58 62 64 67 68 72 74 74 75 75 76 76 76 75 77 75 74 72 73 72 71 68 69 68 67 67 67 65 66 66 65 67 68 67 67 66 65 64
54 53 52 56 56 59 63 64 66 66 69 71 72 73 74 75 74 76 76 75 76 74 74 72 72 71 68 68 67 67 67 67 66 67 67 66 65 67 67 66 67 67 66
52 56 58 62 61 63 64 64 64 65 66 70 71 73 74 75 75 75 76 76 76 76 75 74 72 71 68 65 68 68 67 68 66 68 67 67 68 66 67 68 66 67 65
46 55 58 65 66 64 64 64 64 64 66 68 69 72 74 75 75 76 76 76 76 76 76 74 72 71 68 62 64 67 67 68 66 67 68 67 66 65 64 64 64 65 65
46 56 59 61 64 65 66 64 64 65 66 69 70 71 73 75 75 75 76 76 76 76 75 74 72 70 69 62 62 64 66 65 65 68 67 66 62 67 67 64 63 63 62
45 48 50 60 65 64 63 66 66 68 68 72 71 72 74 75 76 76 76 76 77 76 75 73 70 69 66 62 61 63 65 64 66 67 68 67 66 67 66 66 66 64 63
50 49 42 59 65 65 67 69 68 68 71 70 75 73 77 76 76 76 76 77 75 73 72 71 67 67 68 62 59 61 64 63 65 67 66 67 67 64 60 65 64 63 64
40 49 45 62 67 68 67 69 69 70 69 73 74 77 77 77 77 77 76 74 72 72 71 68 67 65 68 61 58 59 64 63 65 68 67 62 64 60 58 64 63 62 62
46 62 65 65 69 70 69 70 71 71 72 74 75 76 77 77 77 77 74 72 72 73 70 68 67 68 67 68 55 56 67 67 67 67 66 67 59 56 55 56 63 61 57
55 64 67 70 71 71 72 73 73 75 76 75 75 76 77 74 74 74 73 73 72 70 69 68 68 69 71 61 55 55 56 62 66 67 67 66 54 53 55 53 53 52 53
64 63 68 71 72 74 73 73 75 75 74 74 75 75 75 74 74 72 72 71 71 69 68 68 68 70 71 69 55 55 55 56 61 65 60 54 53 55 52 52 52 53 53
66 66 68 69 71 73 73 75 75 75 75 75 74 73 72 71 72 71 70 69 68 67 67 68 70 70 69 66 64 62 59 57 57 55 55 54 54 53 54 54 51 52 55
67 68 69 70 72 74 74 74 75 75 73 72 71 70 69 69 67 60 63 67 59 59 69 69 67 65 64 64 60 59 61 60 58 58 57 55 55 55 55 55 55 55 56
67 68 70 71 72 72 73 74 74 73 72 70 69 68 68 67 65 61 58 46 46 44 44 46 60 55 50 47 45 44 44 45 49 58 62 59 57 55 56 55 56 56 55

GFSMW_sfc_dewp_015.txt.gz
Dewpoint
55 59 59 60 63 67 67 67 69 70 70 72 71 71 72 71 69 69 71 73 73 73 73 72 71 72 71 67 68 66 62 63 63 59 60 62 61 60 57 56 55 56 62
53 57 58 59 62 66 67 68 68 74 71 72 71 71 71 72 70 71 73 72 73 74 72 72 71 72 70 67 64 62 63 64 64 58 60 58 59 61 56 56 54 57 60
52 56 57 58 60 65 68 68 68 73 73 73 72 72 73 72 72 70 74 73 73 74 72 73 72 69 66 66 64 63 63 60 64 60 60 57 56 60 60 57 55 56 55
52 55 57 58 59 65 68 69 70 73 72 73 71 71 69 69 69 71 71 73 74 73 72 72 72 69 68 67 65 65 62 64 60 64 61 60 58 56 56 60 56 57 55
50 54 58 58 60 64 67 71 71 71 72 73 71 71 70 69 71 71 70 73 74 73 73 73 71 67 65 67 66 64 62 64 64 62 63 62 61 59 54 54 56 60 59
48 54 56 59 59 64 67 71 72 72 73 72 73 72 71 70 68 68 72 72 71 72 73 73 68 66 65 67 65 65 65 64 64 63 63 62 58 58 56 56 54 54 57
47 49 55 59 60 63 67 70 71 72 73 73 71 73 71 71 69 71 71 71 71 71 72 71 68 66 65 68 67 65 64 63 63 63 62 63 61 59 58 54 56 54 58
47 48 55 57 60 62 66 70 71 71 73 74 73 71 74 70 70 71 71 71 70 70 71 70 68 67 65 69 68 66 65 65 64 61 62 62 61 62 58 57 56 53 55
45 49 52 56 60 62 67 68 72 72 73 73 74 73 72 73 72 72 71 71 69 69 70 70 68 67 66 65 67 66 64 65 64 61 62 61 60 61 61 58 57 54 52
47 49 51 56 60 61 65 67 72 72 73 72 74 74 73 72 72 73 71 72 70 71 69 70 68 70 66 67 68 65 66 64 65 64 64 62 62 62 61 60 58 59 55
46 49 52 56 60 62 64 67 70 72 73 74 73 74 74 74 72 73 72 71 71 70 69 70 70 68 67 68 68 64 64 65 63 63 62 64 62 61 60 62 60 58 57
45 49 52 54 60 62 62 66 71 72 73 74 74 74 74 74 73 72 72 73 70 71 70 70 70 68 67 66 67 64 64 63 65 63 62 61 62 62 61 63 62 62 61
47 50 50 55 60 61 62 65 68 72 73 74 74 74 73 74 74 73 73 73 73 71 71 71 69 69 68 66 67 65 63 65 64 64 63 63 62 61 63 64 63 62 62
42 49 50 55 57 61 62 63 67 71 73 74 74 73 73 73 74 74 72 73 74 73 69 70 69 69 68 66 66 65 64 65 65 64 64 63 62 62 64 63 63 63 62
45 51 51 53 57 60 62 63 65 67 71 72 73 73 73 73 74 74 74 73 73 73 72 70 70 70 68 66 66 65 65 65 65 64 65 64 65 65 64 64 63 64 63
50 54 54 53 55 57 61 62 64 66 68 71 71 72 72 73 73 74 74 74 73 74 72 72 71 70 69 64 65 65 65 66 65 64 66 64 66 65 65 65 64 64 63
48 52 54 56 55 58 60 62 64 65 66 69 71 71 71 72 73 73 73 74 74 74 74 73 72 70 70 64 63 65 66 65 65 65 65 65 63 64 63 63 62 63 62
45 53 54 61 60 60 60 62 63 65 65 66 69 70 71 71 73 73 74 73 74 74 75 74 71 71 69 62 62 63 64 64 64 66 66 65 64 64 65 64 63 62 63
37 39 54 59 64 61 61 61 62 64 64 65 67 69 70 71 72 73 73 73 74 75 74 72 69 68 67 61 60 61 62 62 62 65 66 65 65 62 60 63 63 63 62
36 35 41 56 60 64 63 61 61 63 63 63 67 68 69 71 73 73 73 74 74 72 72 69 68 65 66 60 58 59 61 61 62 63 65 62 63 60 59 63 62 60 59
42 44 51 59 61 65 64 63 62 62 65 64 74 71 73 74 74 75 74 72 71 71 69 67 67 65 65 64 56 56 62 63 64 63 63 63 59 58 57 57 61 61 55
59 51 62 63 67 67 67 67 66 69 71 74 75 76 76 76 74 73 71 70 71 70 68 66 66 67 66 62 56 55 56 62 63 62 63 62 57 54 55 57 56 51 51
68 69 69 71 72 71 70 71 73 74 74 74 74 74 73 72 72 71 70 70 69 68 67 66 66 65 67 64 56 54 54 56 61 62 59 54 53 54 55 55 53 52 50
67 69 70 70 71 73 72 73 73 73 73 73 72 72 71 71 71 70 69 69 68 67 67 67 65 65 65 62 59 58 57 57 57 56 55 56 54 54 53 51 51 50 50
67 69 70 71 71 72 72 72 73 73 72 71 70 70 70 67 59 53 56 63 55 60 65 66 65 65 64 64 60 58 59 58 55 55 54 53 52 51 51 52 52 51 51
69 70 70 71 72 72 72 72 72 71 70 68 68 68 65 62 60 57 53 45 46 45 45 51 58 53 55 51 49 51 52 51 51 55 55 53 54 54 54 53 53 54 55

GFSMW_sfc_dewp_021.txt.gz
Dewpoint
61 62 62 62 62 66 67 67 68 69 69 70 70 69 68 69 70 70 70 71 72 72 70 70 71 70 69 68 66 65 61 60 62 55 57 61 59 57 56 59 66 66 67
60 61 61 62 62 65 67 67 67 68 69 69 70 69 68 69 69 70 70 71 72 72 71 70 70 70 69 67 66 61 60 62 61 57 58 56 58 57 55 56 62 65 67
58 60 60 60 62 64 66 67 67 67 68 69 69 70 70 70 70 69 69 70 71 72 72 71 71 70 68 66 63 61 61 58 62 59 58 56 55 58 58 54 57 62 63
57 58 59 60 61 63 66 67 68 68 68 69 69 68 67 67 69 69 70 70 71 71 72 71 70 70 69 66 63 63 61 60 60 62 60 58 58 54 51 57 55 55 55
57 57 58 59 61 63 66 67 68 68 68 68 68 68 66 66 69 70 70 71 71 71 72 71 70 66 67 65 63 63 63 61 59 60 60 59 59 54 54 52 54 58 57
56 57 57 59 61 63 65 67 68 68 68 68 68 67 67 67 68 68 69 70 71 72 71 71 70 67 65 64 64 63 62 64 63 62 62 60 54 56 54 54 54 54 55
54 55 56 57 59 62 65 66 67 68 69 69 69 68 67 67 67 67 68 69 71 71 71 71 70 66 65 65 64 62 61 63 62 61 61 61 59 58 56 51 53 52 54
51 53 54 56 58 60 64 65 66 68 69 70 69 69 68 67 67 67 67 68 71 71 71 71 71 67 64 65 64 63 63 62 62 60 61 61 60 58 56 53 55 52 53
50 51 53 54 57 59 62 65 65 66 70 70 70 69 69 68 68 68 68 69 70 71 71 71 70 67 64 64 64 64 63 63 61 61 62 61 60 60 60 59 54 51 49
49 50 52 53 56 57 60 64 65 65 67 70 70 69 69 69 69 69 69 69 70 70 70 71 69 67 64 65 65 64 63 64 63 62 60 60 60 59 60 58 56 54 51
47 49 50 52 54 57 59 63 65 65 65 68 69 69 69 70 69 69 69 70 71 70 70 70 69 67 65 65 65 65 64 62 63 63 61 60 60 60 60 60 59 57 56
47 47 48 50 53 56 58 63 65 66 66 68 68 69 69 70 70 69 69 70 70 70 70 70 69 67 66 63 65 65 64 63 61 62 62 62 62 61 60 59 60 57 57
48 47 48 49 52 56 58 63 64 66 66 68 69 69 69 69 70 70 70 71 70 70 69 69 69 67 66 65 63 65 64 64 63 61 62 62 61 60 61 60 60 61 60
48 48 47 50 52 56 58 62 65 66 67 68 69 69 69 70 69 70 70 70 71 70 69 69 69 68 67 66 65 64 64 64 64 64 63 61 61 60 60 60 61 60 61
48 46 47 50 52 55 59 61 64 67 67 68 69 69 70 70 71 70 70 70 71 71 69 69 69 69 67 67 66 66 65 65 64 63 64 63 63 63 62 60 60 62 60
46 46 46 48 51 54 58 60 64 66 68 68 69 69 70 71 71 72 72 71 70 71 70 69 68 69 68 65 64 66 66 65 65 63 64 65 65 65 63 62 62 63 61
41 41 44 45 47 52 57 59 63 65 68 69 69 70 70 71 72 72 72 72 71 71 70 70 69 69 69 63 63 65 67 65 65 65 65 64 64 64 65 63 62 63 62
40 39 40 45 49 53 57 59 62 65 68 69 70 70 71 71 72 72 72 72 71 72 72 70 70 69 69 63 61 64 67 66 66 66 65 64 64 64 64 63 62 61 62
40 41 46 45 50 53 57 60 62 64 68 69 69 70 71 71 72 72 72 73 72 71 72 71 70 70 70 61 60 62 67 66 66 66 66 65 64 62 61 63 62 61 61
36 43 51 54 52 54 57 60 61 64 67 69 69 71 72 72 72 72 72 73 73 73 72 72 72 68 70 60 58 63 67 66 66 65 65 62 64 59 58 64 62 60 61
36 37 47 56 54 56 59 60 61 62 65 68 70 70 72 72 72 72 73 73 73 74 73 73 73 70 67 62 57 60 66 66 65 63 61 62 58 56 55 57 62 61 59
67 65 42 41 54 57 58 60 61 63 64 66 68 70 71 72 72 73 73 73 73 73 73 71 70 69 65 58 57 58 60 60 61 61 63 63 56 52 52 55 56 54 56
64 68 67 62 54 53 60 58 60 62 63 65 66 68 70 71 72 72 73 73 73 73 70 69 68 66 67 64 56 55 54 57 62 64 61 55 52 50 52 54 54 54 54
54 61 63 64 62 64 66 62 59 60 62 64 65 66 69 70 72 73 73 73 73 71 69 69 66 66 65 62 60 58 56 56 60 57 56 56 55 55 55 55 54 52 51
56 54 60 60 58 57 59 59 63 63 62 63 65 67 69 70 71 62 68 72 68 68 68 68 67 65 64 62 59 58 59 60 58 56 55 55 54 54 52 51 51 51 50
57 57 56 57 59 60 60 59 59 69 66 67 70 71 71 65 62 61 58 54 53 55 55 55 59 62 56 50 49 47 48 48 50 55 55 53 53 53 52 50 50 50 51

GFSMW_sfc_dewp_024.txt.gz
Dewpoint
61 62 62 64 65 66 68 68 69 70 70 70 70 69 69 70 70 71 72 72 72 73 73 72 72 71 71 70 69 67 65 63 63 61 61 63 61 60 60 65 68 69 69
61 62 62 62 63 65 67 68 69 70 70 70 70 70 70 69 71 71 71 72 72 73 72 71 71 71 71 69 68 66 63 63 62 61 60 60 60 60 59 62 65 67 68
60 61 62 62 62 64 67 68 69 69 70 70 70 70 71 71 70 70 71 71 73 73 73 71 72 71 71 69 68 65 64 62 64 62 61 58 58 59 60 60 61 65 66
61 61 61 62 62 63 66 68 68 69 70 70 69 69 68 68 69 69 70 70 72 72 73 72 72 71 71 68 67 65 64 64 64 63 61 61 62 58 56 60 59 59 60
60 60 61 62 62 63 64 67 68 69 69 70 69 69 69 69 69 70 70 70 71 72 72 73 72 71 70 70 67 66 65 64 63 62 62 61 59 58 57 55 57 60 60
58 60 60 62 61 62 64 66 68 68 69 69 69 69 68 68 68 69 69 70 71 71 72 72 72 71 69 69 67 66 66 66 64 63 64 62 60 58 57 57 57 57 59
57 58 59 59 61 62 64 66 68 68 68 68 69 69 69 68 68 68 69 70 71 72 72 72 71 70 68 68 67 66 65 66 65 65 63 63 61 60 58 57 56 57 57
57 57 58 59 60 62 64 66 67 68 68 68 68 69 69 68 68 68 69 69 70 71 73 72 71 71 69 68 67 65 64 65 65 64 64 63 62 61 59 58 58 56 56
53 56 57 58 59 61 63 66 67 68 68 68 68 69 69 69 68 69 69 69 71 71 72 72 72 71 68 68 67 65 65 65 64 64 64 63 62 62 61 59 59 58 54
50 52 55 56 58 59 62 65 66 67 68 68 69 69 69 69 69 69 69 69 70 71 72 72 72 71 68 67 67 66 65 65 64 63 64 64 62 62 62 61 60 58 58
48 50 52 54 56 57 60 63 65 66 67 69 69 69 69 69 69 69 69 69 70 71 71 72 72 70 69 67 66 66 66 65 65 65 63 63 64 61 61 61 60 59 57
49 50 51 52 54 56 58 61 64 65 66 69 70 69 70 70 69 69 70 70 70 71 71 71 71 71 69 68 67 66 66 65 64 65 64 63 62 63 63 61 63 61 61
50 50 50 51 53 55 57 59 62 64 65 66 69 69 69 69 69 70 70 70 71 71 71 71 71 70 69 67 67 67 66 66 65 65 65 64 64 63 62 63 62 62 61
50 51 50 50 53 55 58 59 61 63 65 65 67 68 69 69 69 70 70 70 71 71 71 71 71 70 69 68 67 67 67 66 66 66 65 64 64 63 63 63 64 64 64
51 51 50 51 54 56 59 60 62 64 65 66 66 68 69 69 70 71 71 71 71 71 71 70 71 70 69 68 68 67 66 66 66 66 66 65 65 65 63 62 64 65 63
48 52 52 53 54 56 59 60 63 64 66 67 66 68 69 69 69 70 71 71 71 71 71 70 70 70 69 65 64 67 67 67 66 65 66 66 65 65 63 62 62 64 63
38 49 51 51 53 55 59 60 62 64 66 67 68 69 69 70 70 70 70 70 70 71 71 70 70 70 70 63 63 65 68 68 67 66 66 65 66 65 66 63 62 62 62
40 46 49 51 52 53 53 59 62 65 67 67 68 69 70 70 71 71 71 71 71 70 71 71 70 70 70 62 62 64 68 68 68 67 66 66 66 66 65 65 65 65 65
39 43 46 49 53 53 57 60 62 65 67 68 68 69 70 70 71 71 71 71 71 71 71 71 71 70 70 61 60 63 68 68 67 67 67 67 66 62 61 66 65 65 64
38 42 46 50 50 54 58 60 61 64 66 68 69 70 70 70 71 71 72 72 72 72 72 72 71 68 71 60 59 63 68 68 67 67 67 62 65 59 58 66 66 65 63
50 44 50 53 57 58 60 61 61 63 65 67 69 70 71 71 71 71 72 73 73 73 72 72 72 72 71 68 58 58 69 68 67 67 66 66 59 56 54 59 66 63 63
68 66 54 53 53 60 62 63 63 64 67 69 69 70 71 71 71 72 72 73 73 73 72 72 72 72 72 64 56 57 62 64 67 66 66 65 56 53 53 56 58 54 58
64 67 65 63 62 65 64 62 64 65 66 68 69 71 71 72 72 73 72 72 73 72 72 71 71 71 70 61 55 57 59 59 65 65 63 56 50 50 52 55 54 55 59
55 63 62 60 59 62 63 63 65 69 66 67 68 70 71 71 72 73 73 72 72 72 71 71 71 70 66 64 62 63 61 58 61 58 59 57 57 56 57 57 56 59 57
59 57 57 59 59 60 60 61 61 68 69 65 67 68 70 70 73 65 68 73 73 71 72 71 70 67 66 65 60 60 61 62 59 58 59 58 58 57 57 57 57 56 54
60 60 61 61 61 61 61 61 61 66 71 68 66 68 70 71 63 61 57 49 54 54 52 54 62 62 56 51 50 51 49 48 50 60 60 59 58 57 56 55 55 54 53

GFSMW_sfc_dewp_027.txt.gz
Dewpoint
61 63 64 65 66 68 69 71 71 73 72 70 69 68 67 68 69 71 73 73 74 74 75 72 74 73 72 72 73 70 69 65 66 62 62 62 63 62 63 67 65 68 68
61 62 63 64 65 67 69 72 72 74 73 71 71 69 69 68 70 72 74 74 74 75 74 75 73 74 71 73 73 71 66 64 66 62 62 57 59 60 60 66 65 67 65
60 62 63 63 65 67 70 71 73 74 74 74 72 71 71 71 71 71 72 73 74 75 75 75 74 74 73 71 73 70 68 63 66 65 61 57 54 60 60 64 65 67 64
61 62 62 63 64 67 69 72 73 74 73 75 73 73 69 67 68 70 71 72 74 74 74 75 74 75 72 73 72 70 68 66 63 64 64 65 64 56 55 59 63 64 62
60 61 62 64 64 66 67 70 73 74 74 75 74 72 72 69 69 70 74 76 75 74 74 75 75 75 73 74 73 71 70 66 63 63 62 64 62 64 59 55 57 61 61
60 62 63 64 64 65 65 68 72 74 74 74 74 75 74 72 69 71 70 69 70 71 74 74 75 75 74 74 73 72 71 68 66 65 64 60 58 57 58 57 59 57 59
60 61 62 63 65 66 67 68 71 72 73 74 74 74 74 74 74 73 70 71 69 69 73 75 75 73 75 74 73 73 71 70 67 69 64 64 61 61 59 57 58 56 58
58 60 62 64 66 66 67 68 70 72 73 73 74 74 74 71 71 72 70 69 69 70 74 74 74 74 74 73 73 71 69 69 68 69 68 64 64 63 61 59 57 56 56
57 59 61 63 65 66 67 68 70 71 72 72 73 73 74 73 72 73 74 70 73 70 73 74 74 75 74 74 73 69 70 68 68 68 68 65 63 63 62 60 59 56 52
54 57 60 61 63 64 66 67 69 70 71 72 72 72 72 73 73 73 73 73 73 74 73 74 74 74 74 74 73 71 70 69 67 65 68 68 64 64 63 62 61 60 57
49 52 58 61 62 62 64 66 68 70 71 71 72 72 72 72 73 73 73 74 74 74 74 74 74 74 74 74 73 72 70 69 69 68 68 68 68 63 62 63 62 61 59
51 52 53 57 59 62 63 64 66 67 69 71 72 72 72 72 72 72 73 74 74 74 75 74 74 74 74 74 73 72 70 70 69 68 68 67 65 67 67 63 66 63 63
51 53 52 56 58 60 63 63 65 65 66 70 70 71 72 72 72 72 73 74 74 74 73 74 74 74 73 73 73 72 72 70 70 69 68 67 67 66 63 64 62 61 63
53 55 55 58 59 61 63 64 64 64 66 67 69 71 72 72 72 73 73 73 74 74 74 75 75 74 73 73 72 72 72 71 70 70 68 68 67 67 67 65 66 65 63
47 51 55 60 63 63 64 64 64 66 66 69 68 70 72 73 73 73 73 74 74 74 74 74 74 74 72 70 72 72 72 71 71 70 69 68 68 66 66 64 66 67 64
44 50 57 59 61 63 63 64 65 66 68 69 69 71 73 73 73 73 74 74 74 74 74 74 74 74 71 66 66 71 71 71 72 71 70 70 68 66 63 63 64 67 67
44 48 54 58 60 60 63 63 65 66 68 69 70 71 72 73 73 73 74 74 74 74 74 74 74 74 74 64 64 66 71 71 72 72 71 69 67 66 66 64 62 63 63
43 48 43 52 61 57 56 63 64 68 69 70 70 71 71 72 73 73 73 74 74 74 74 74 74 74 73 63 62 65 72 72 72 72 71 71 70 69 68 68 66 66 65
45 46 43 49 61 61 62 65 65 67 69 69 70 71 71 72 73 73 73 73 73 74 74 74 74 74 74 61 61 64 70 71 72 72 72 71 70 65 62 68 67 66 66
41 45 46 52 54 61 59 63 64 66 68 69 70 71 72 72 72 73 74 74 73 73 72 73 74 71 74 61 59 63 69 71 70 72 72 63 68 60 59 68 68 67 66
47 47 48 52 57 59 59 65 65 66 67 68 69 72 73 74 73 73 74 74 74 73 74 73 74 74 73 72 58 58 71 69 69 70 68 69 59 56 55 59 69 67 67
64 50 53 59 64 64 63 66 68 68 69 70 71 74 74 72 71 74 74 75 74 74 74 74 72 73 74 65 57 57 62 66 70 69 68 69 56 54 53 58 59 56 61
67 65 64 66 67 67 67 67 69 69 70 71 73 74 74 74 74 74 74 72 72 72 72 72 72 72 72 73 57 55 57 61 69 69 67 59 53 53 55 55 55 56 63
65 63 63 64 65 68 69 70 71 71 70 71 72 73 74 74 75 73 73 72 72 71 70 71 71 71 72 70 63 62 63 61 64 61 60 59 59 58 59 58 58 63 63
61 62 63 63 64 65 65 64 65 71 72 70 70 71 71 72 73 74 73 72 72 71 72 72 71 72 67 64 58 61 64 64 61 60 61 62 61 60 61 62 62 63 61
63 63 63 63 64 65 65 65 66 65 67 68 68 67 67 68 71 73 69 54 53 55 54 56 67 68 57 50 51 51 51 52 54 62 62 63 61 61 61 60 60 60 59

GFSMW_sfc_dewp_030.txt.gz
Dewpoint
59 61 62 63 64 66 68 70 71 73 72 70 69 68 65 65 64 65 70 72 73 74 76 72 73 73 71 73 72 70 70 64 66 57 58 59 60 60 60 59 57 60 60
59 60 61 62 63 66 68 71 72 74 73 71 71 68 66 64 65 66 70 73 73 75 75 76 74 74 70 74 73 72 67 65 61 58 58 54 56 57 58 59 58 59 57
58 60 61 61 62 65 68 71 73 74 74 74 71 70 68 67 66 67 70 73 74 75 76 76 72 75 73 70 73 72 70 63 61 65 60 55 53 55 57 62 58 62 57
59 60 60 61 62 64 67 70 73 74 74 75 73 75 67 64 64 67 69 70 74 74 74 75 75 76 72 73 76 72 70 70 60 62 61 66 65 54 54 57 59 60 59
58 59 60 61 62 64 66 69 73 76 76 77 76 72 72 66 65 65 74 77 75 74 73 75 76 76 73 74 75 73 73 68 61 59 60 63 59 62 56 54 56 59 58
57 59 61 61 62 64 65 68 74 76 76 75 75 76 76 73 67 69 67 68 69 71 74 74 76 76 75 75 74 75 74 72 67 61 62 57 56 56 57 55 58 56 58
56 58 61 62 62 63 66 67 73 75 75 74 75 75 75 76 75 73 70 71 66 66 73 75 75 74 76 75 75 76 73 73 69 69 61 60 59 59 56 54 55 54 56
55 57 60 62 64 64 67 68 71 74 74 74 76 77 77 72 72 74 69 69 67 68 72 73 74 75 75 75 75 73 72 72 71 70 68 60 61 61 59 57 56 54 54
55 57 59 61 63 66 68 70 72 75 74 72 76 77 77 76 72 75 75 70 74 68 71 72 74 74 75 75 76 72 73 71 71 69 69 64 59 61 59 59 57 55 52
54 56 58 59 62 64 66 69 72 73 74 73 74 74 75 77 76 76 76 75 74 74 72 73 73 74 75 75 76 73 73 73 69 66 68 69 60 62 61 59 58 57 55
51 53 55 58 60 62 65 66 69 71 72 73 74 74 73 74 75 75 76 77 75 76 75 75 74 73 74 75 76 75 73 73 72 70 68 69 69 60 59 60 59 59 58
44 47 50 55 57 60 62 64 66 67 70 72 74 75 75 75 74 75 76 77 77 76 77 76 75 74 73 75 75 74 72 73 72 72 71 68 65 69 67 60 68 63 63
44 47 47 50 55 58 62 62 64 64 66 71 71 72 73 73 75 76 76 77 77 77 73 76 77 75 74 75 75 74 74 73 73 72 72 70 68 68 64 65 62 61 62
45 46 47 50 53 59 64 66 62 63 64 66 68 72 74 74 74 76 76 76 77 77 76 76 77 76 75 74 73 73 74 74 73 73 72 71 69 68 68 65 66 64 61
38 45 52 55 59 61 65 67 64 66 65 69 68 71 74 75 75 76 76 76 77 77 77 77 77 77 73 70 75 75 73 74 73 73 73 72 70 67 67 65 67 70 65
34 35 45 52 57 60 63 64 68 66 67 70 70 72 75 76 76 76 77 77 77 77 77 76 76 76 72 66 66 72 73 75 75 74 73 73 70 68 64 64 64 67 68
38 40 43 47 55 58 62 63 68 67 69 71 72 73 75 76 76 76 77 77 77 77 77 76 76 76 76 64 64 67 72 74 75 75 74 72 70 70 70 65 63 64 64
37 39 35 40 50 53 48 60 62 70 70 72 73 74 75 75 76 77 76 77 76 76 76 76 77 77 76 64 62 65 73 74 75 75 75 75 74 72 71 70 67 66 66
38 39 38 41 48 48 53 56 62 66 69 71 73 73 74 74 75 76 76 76 76 76 75 75 77 77 77 63 61 65 72 72 75 75 74 75 75 68 63 71 70 70 68
38 40 40 41 44 54 54 58 60 63 68 70 72 73 74 75 74 76 77 76 76 75 72 74 76 72 77 64 59 65 70 71 70 75 76 65 72 62 60 70 70 70 69
46 47 49 49 52 57 58 61 62 63 67 68 69 73 75 75 76 77 77 77 76 74 76 74 75 76 75 75 58 59 72 68 69 68 70 71 62 57 57 62 71 70 70
55 59 56 52 54 60 60 63 69 68 70 71 71 74 75 72 71 77 77 76 76 76 75 74 73 73 76 67 59 58 61 67 70 70 68 71 58 55 55 59 63 59 62
60 62 52 57 64 67 66 66 70 71 70 71 73 74 74 74 76 76 77 73 75 71 72 70 71 70 73 74 61 57 57 60 68 68 67 61 54 54 55 58 58 59 67
66 65 62 62 67 69 69 70 72 71 71 71 72 72 73 73 73 71 72 71 70 71 70 70 70 70 71 72 73 67 62 60 64 63 65 61 60 60 61 60 62 68 65
65 65 65 66 67 68 69 69 71 73 71 71 71 72 71 73 73 73 70 70 72 68 70 70 70 69 70 72 68 65 66 67 64 61 63 63 63 63 63 65 66 67 65
64 64 64 65 66 66 66 67 68 68 68 69 67 66 65 67 69 69 72 52 54 53 52 53 61 65 61 52 50 50 51 51 54 63 64 64 63 62 63 65 64 65 64

GFSMW_sfc_dewp_036.txt.gz
Dewpoint
58 60 60 60 62 66 69 70 71 74 72 71 71 71 69 71 72 73 74 76 76 77 78 77 73 76 75 75 75 73 70 69 68 68 65 66 63 62 62 64 62 66 65
55 59 60 60 61 65 69 71 71 74 73 72 73 72 72 70 70 72 75 75 75 78 77 77 76 77 73 76 75 74 72 69 67 68 64 62 64 61 60 65 62 64 63
55 58 60 60 61 65 68 70 72 74 75 74 74 75 75 75 71 70 71 73 75 76 77 77 77 77 76 75 75 74 75 69 67 71 68 62 59 64 64 63 63 63 64
57 58 59 60 61 64 68 71 73 74 75 75 73 74 70 68 69 69 71 71 74 75 76 76 77 77 76 76 77 76 75 73 66 67 67 70 69 64 59 65 64 65 61
55 58 58 60 60 63 68 71 73 74 75 74 76 73 72 69 69 71 73 74 75 76 75 76 78 78 77 77 76 77 76 75 72 67 66 68 68 68 66 62 64 65 66
55 59 59 61 61 63 67 70 74 75 76 75 74 76 73 72 69 69 70 72 74 74 77 76 77 78 77 77 77 78 77 76 75 72 69 67 65 65 65 64 63 64 66
54 58 60 60 61 63 66 69 74 74 75 75 74 74 76 73 75 75 68 70 69 72 75 77 77 76 77 77 77 77 78 76 75 73 71 70 69 68 67 65 64 63 65
49 56 60 61 62 63 66 68 72 74 75 75 75 75 76 73 71 75 69 69 69 70 75 75 76 76 76 76 78 77 76 76 75 75 73 71 70 69 67 66 66 62 63
47 55 59 61 62 62 65 68 71 74 75 74 76 76 74 76 73 74 75 73 73 71 76 75 76 75 76 77 78 75 76 77 75 74 74 72 70 69 68 68 67 65 62
46 53 58 61 62 62 64 67 70 73 74 75 75 75 75 75 75 74 75 73 75 74 78 75 75 76 76 77 77 76 77 76 75 73 73 73 69 68 69 68 68 67 65
46 50 57 59 62 63 64 65 68 72 74 74 75 75 75 75 75 75 75 77 75 78 75 77 76 76 76 76 77 76 75 76 75 73 73 72 72 71 69 68 68 68 67
48 50 54 58 61 63 63 65 66 69 72 75 75 75 75 76 75 75 75 76 77 75 78 77 76 76 75 76 76 75 73 75 75 73 72 72 70 72 72 72 68 67 69
45 49 53 56 59 62 64 64 66 66 70 74 74 74 74 74 75 76 75 75 76 77 75 77 77 75 75 75 76 75 75 73 75 75 73 72 72 71 68 70 69 68 69
48 49 52 57 59 62 65 66 66 66 68 71 73 73 74 74 75 75 76 75 75 76 76 76 76 76 75 75 75 75 76 75 74 75 75 74 72 71 71 69 69 69 68
49 54 53 59 62 64 66 66 66 67 67 69 71 73 74 75 75 75 76 76 76 75 76 76 76 76 76 74 75 75 75 75 74 74 75 75 74 70 70 69 70 68 68
45 49 54 58 63 64 67 66 67 67 68 69 69 72 74 74 75 75 76 76 77 76 76 76 76 76 74 69 68 73 74 75 75 75 75 75 72 71 67 67 67 69 67
39 43 50 54 59 60 68 68 68 69 70 70 71 72 73 74 75 76 76 76 76 77 77 76 76 76 76 67 66 68 74 74 75 75 75 74 73 72 72 66 65 66 66
45 51 39 48 59 50 50 63 68 71 71 73 72 73 74 74 75 76 76 76 76 77 76 76 77 76 76 67 64 66 73 74 74 75 75 75 74 74 73 71 68 68 68
47 48 42 46 62 57 58 62 64 71 71 71 73 73 74 74 75 75 76 76 77 76 77 77 77 77 76 65 63 64 71 72 73 74 75 75 75 70 65 73 70 68 68
58 60 58 57 50 63 55 65 63 67 71 71 71 74 74 74 74 76 77 77 77 76 76 76 77 73 77 68 62 64 72 71 71 73 74 67 72 66 61 72 72 70 69
60 61 62 61 66 67 65 69 65 65 68 71 72 74 74 74 75 76 77 77 77 77 77 76 77 77 76 76 62 60 73 72 71 70 71 72 63 61 59 63 72 71 71
60 59 62 63 63 70 70 71 73 74 75 74 73 74 76 73 73 77 77 77 77 77 77 76 76 76 77 69 65 59 61 69 73 71 71 71 61 58 57 60 65 62 65
63 61 60 64 65 71 73 71 77 78 77 78 77 76 77 76 75 77 77 76 77 76 76 75 75 75 75 76 63 59 58 59 68 73 70 59 55 56 58 59 61 61 70
64 67 68 69 71 72 71 75 76 77 78 79 79 78 77 76 76 74 75 75 74 75 75 75 74 73 74 75 75 72 64 60 64 67 69 68 63 60 64 63 63 71 72
67 68 70 71 72 74 75 74 76 77 76 77 77 78 75 76 76 76 73 75 75 73 74 74 73 72 73 71 60 62 73 71 67 69 72 72 71 72 68 67 68 71 72
68 69 69 69 69 69 70 71 72 75 77 75 73 72 72 72 74 75 75 63 63 57 50 50 61 73 57 50 51 54 56 52 55 67 71 72 71 69 69 68 69 70 69

GFSMW_sfc_dewp_039.txt.gz
Dewpoint
58 60 62 62 63 64 65 64 67 68 67 71 69 70 68 69 68 68 72 73 73 73 73 73 72 72 70 70 70 68 67 65 60 60 61 60 58 60 62 64 66 67 66
57 58 58 59 62 65 66 66 69 70 68 70 68 69 70 69 69 68 72 73 73 73 73 73 72 73 71 71 70 69 68 67 62 64 61 55 56 59 61 63 65 65 65
56 57 57 59 62 65 66 67 68 71 69 70 70 71 71 69 69 68 68 73 72 74 73 73 73 73 71 71 71 70 69 61 63 65 64 58 54 58 60 59 59 62 61
56 58 57 59 60 65 67 67 69 72 70 71 70 69 67 67 69 66 67 70 72 73 74 73 72 73 73 71 71 72 70 64 58 61 64 65 64 55 54 61 59 60 59
55 57 58 59 59 64 67 68 68 71 71 71 70 70 69 69 67 67 67 70 70 72 75 73 74 73 73 72 72 72 69 69 66 60 61 63 63 63 59 57 58 61 61
55 56 58 58 59 64 66 68 68 69 71 71 72 70 70 68 68 66 66 71 70 73 74 74 74 73 73 73 73 73 71 70 70 66 64 58 58 59 59 61 60 58 61
54 55 58 58 59 63 65 68 69 69 71 71 70 72 70 70 68 67 66 69 72 71 73 74 74 74 74 74 73 73 73 72 70 69 65 66 61 64 61 61 59 59 61
54 55 57 58 59 60 65 68 69 70 71 72 70 69 73 71 68 72 68 68 69 71 71 74 73 73 73 74 75 74 74 73 71 71 69 65 66 64 60 58 60 57 58
54 56 57 58 58 60 65 67 70 70 71 72 72 71 70 74 69 67 72 66 69 70 72 73 74 73 73 73 74 74 73 73 72 71 71 68 66 67 63 61 61 58 56
52 57 57 58 59 59 64 67 70 71 71 71 72 72 70 70 73 69 69 72 67 69 72 72 73 73 73 74 74 74 74 73 73 72 71 70 68 65 65 63 61 61 58
52 57 58 58 59 59 63 65 68 71 72 72 71 72 72 70 72 72 70 73 70 72 72 73 73 73 73 74 74 73 73 74 73 72 71 70 68 65 65 64 63 61 60
48 57 59 59 59 59 61 64 66 70 71 72 72 72 73 73 71 72 73 69 74 71 74 74 73 74 73 73 75 73 73 72 73 72 70 70 69 67 67 68 62 61 63
49 55 58 59 59 59 60 62 64 68 70 72 72 72 72 73 72 72 72 74 70 74 71 75 74 73 74 74 73 74 73 72 73 73 71 69 70 67 65 67 66 65 63
48 54 56 59 60 60 60 61 63 65 69 71 72 72 73 73 73 72 72 71 74 72 75 72 75 74 74 73 74 73 73 73 72 74 73 71 70 68 67 66 65 65 64
50 52 55 57 60 61 61 62 63 64 66 70 71 72 73 72 72 73 73 73 71 73 73 74 73 74 73 73 73 73 73 73 73 72 74 73 71 69 67 67 66 64 65
48 49 54 57 59 61 62 63 63 64 65 68 70 72 72 72 72 73 73 74 74 72 73 73 73 73 74 69 68 72 73 73 73 73 72 74 72 70 67 66 66 66 62
41 42 42 52 61 63 63 63 64 64 65 66 68 70 72 72 72 72 73 73 73 74 73 72 73 73 73 66 66 68 73 72 73 73 73 71 72 71 72 66 66 65 65
44 43 43 46 50 61 64 64 64 66 66 66 67 69 71 72 72 72 72 73 73 73 74 74 73 74 73 66 64 66 72 72 72 73 73 73 72 72 72 72 69 68 67
58 59 58 57 57 54 54 66 65 66 68 67 68 69 71 71 72 72 72 73 73 73 73 74 74 74 74 64 63 64 71 72 72 72 73 73 73 69 65 72 71 69 68
59 59 59 59 59 59 59 64 66 65 67 68 70 71 71 72 71 72 72 73 73 73 73 73 75 72 74 66 62 64 72 72 71 72 72 66 71 65 62 71 72 70 69
61 61 60 60 61 61 59 61 62 67 67 68 71 73 73 72 72 72 73 73 73 74 74 74 74 75 74 74 61 60 72 72 72 71 71 71 63 60 59 61 72 70 70
64 63 60 59 60 60 61 61 59 66 68 70 71 71 72 72 73 74 74 74 74 74 74 74 74 75 75 67 63 59 61 69 73 72 72 70 60 58 58 59 64 61 64
59 66 67 68 68 61 62 62 69 70 72 70 71 72 73 73 71 74 74 75 75 75 75 74 74 74 75 75 62 59 58 60 70 74 71 64 59 56 58 59 60 60 69
60 65 67 69 72 72 73 72 73 71 69 72 74 74 74 75 73 75 74 74 75 75 74 75 74 74 74 75 75 72 65 60 63 67 70 68 66 64 64 64 61 66 70
61 64 66 68 69 70 70 71 71 72 74 70 75 74 75 74 75 73 75 74 74 73 75 75 74 74 74 71 60 61 70 69 66 67 71 72 72 71 71 68 68 66 68
61 63 65 67 68 68 68 67 68 70 72 73 74 74 73 74 75 75 72 52 54 54 52 50 65 60 53 48 47 47 48 49 50 63 69 70 71 72 72 72 71 68 67

GFSMW_sfc_dewp_042.txt.gz
Dewpoint
61 62 62 61 62 64 64 63 64 68 68 69 68 67 66 67 68 69 69 71 71 72 73 72 72 71 71 70 67 67 65 63 61 60 59 59 59 62 65 67 66 66 67
61 61 62 61 62 64 64 64 64 66 68 67 67 69 67 68 68 68 71 71 72 73 72 72 71 71 71 70 69 68 66 64 61 62 59 53 55 60 62 66 66 66 66
60 61 61 62 62 64 64 64 65 66 66 68 68 69 70 68 68 68 70 71 72 73 73 72 72 71 70 70 70 69 66 59 63 63 60 55 53 56 59 60 65 65 65
59 61 61 62 62 63 64 65 66 66 66 69 67 67 67 68 68 67 67 71 72 73 73 72 72 72 71 70 70 70 68 59 59 60 64 64 62 53 53 59 59 62 62
59 58 59 61 62 62 64 64 68 67 68 69 68 67 66 67 68 67 66 69 71 72 73 73 72 71 72 71 70 71 69 65 60 57 61 61 62 61 56 55 57 61 59
58 58 58 59 62 64 65 65 68 68 68 69 69 68 67 68 67 67 65 68 69 71 73 73 72 72 72 71 71 71 69 70 65 64 62 58 57 58 59 59 58 56 58
57 57 57 57 62 64 64 66 67 69 69 69 69 69 68 68 68 66 66 68 69 70 71 73 72 72 73 72 71 72 71 69 70 67 63 62 58 61 59 59 59 58 60
56 56 58 57 59 64 65 65 66 67 69 69 69 69 69 69 68 67 66 66 69 69 71 73 73 73 73 73 72 72 73 71 70 69 66 65 66 64 60 56 59 55 58
55 55 58 58 59 63 65 66 66 66 69 69 69 70 71 69 69 68 68 66 69 71 71 73 72 73 73 73 73 72 72 72 70 69 70 67 64 65 64 60 60 56 56
55 55 57 58 59 61 64 66 66 66 67 69 69 68 69 72 70 68 69 71 67 70 71 71 73 72 72 72 72 73 72 72 72 71 69 69 68 65 64 64 60 60 56
54 55 56 58 58 60 63 66 67 66 67 68 70 69 68 68 72 70 68 68 70 67 70 71 72 73 72 72 72 72 74 72 72 72 70 69 68 67 64 63 63 60 58
54 55 56 57 58 59 62 64 68 67 68 69 70 71 71 69 69 72 70 69 69 70 68 72 72 73 73 72 72 72 73 73 72 72 71 70 69 68 66 64 64 61 60
54 54 56 57 58 58 61 65 66 68 69 69 70 71 71 71 70 69 73 71 69 70 71 73 72 73 73 73 73 72 72 73 73 73 72 71 70 69 67 65 65 65 61
53 56 56 57 58 58 60 63 65 69 70 70 71 70 71 72 72 70 70 73 72 68 72 73 73 73 73 72 72 73 73 72 72 73 73 71 70 69 68 66 65 64 64
52 56 57 57 59 59 59 62 64 67 70 70 71 71 71 72 73 72 71 71 72 73 70 72 73 73 73 73 73 72 72 73 72 72 73 73 71 69 68 67 65 64 63
52 56 57 58 59 59 59 61 63 65 68 70 70 71 72 71 72 73 73 71 71 71 73 72 73 73 73 69 68 71 72 72 72 72 72 72 71 69 66 66 65 65 64
53 56 57 58 59 59 59 60 62 64 67 69 69 71 71 72 72 72 73 73 72 71 70 71 72 72 73 66 66 68 72 72 72 72 72 72 72 71 72 66 65 64 64
50 46 50 58 63 63 61 61 62 63 64 66 69 70 72 72 72 72 72 72 73 73 72 71 71 72 72 65 64 66 72 72 72 72 72 72 72 71 72 73 70 68 67
58 57 57 57 55 63 63 62 63 64 64 65 66 70 71 72 72 72 72 72 72 72 73 73 73 71 72 64 62 64 71 72 72 72 72 73 72 69 64 72 72 71 70
61 58 57 57 56 60 56 63 63 64 64 64 66 67 70 71 72 72 72 72 72 72 72 73 73 71 73 64 61 64 71 71 72 72 73 66 70 65 62 69 71 71 71
65 66 64 61 58 59 59 64 64 64 65 66 66 68 68 70 71 72 72 72 72 72 72 72 73 73 73 73 60 60 72 73 72 72 72 72 63 60 59 61 72 71 71
63 66 69 70 69 62 59 57 60 64 68 68 70 69 70 69 70 71 71 71 71 72 72 72 73 73 74 65 60 59 61 69 73 73 73 72 61 58 57 60 64 62 63
59 64 67 69 70 70 70 70 70 69 69 69 69 70 71 72 72 71 71 71 72 72 72 73 73 73 74 75 61 58 59 60 70 74 71 64 60 57 58 58 60 60 69
59 62 65 66 68 69 69 69 69 71 72 66 71 70 71 71 71 73 73 73 73 73 73 73 73 74 75 75 75 69 64 60 63 66 70 68 64 61 65 65 62 63 68
59 62 63 64 66 68 67 67 66 68 69 71 70 72 72 71 72 68 68 73 74 73 74 75 75 75 74 73 63 65 71 69 65 66 69 70 71 72 72 72 71 70 67
59 61 62 63 64 67 65 65 66 68 68 68 71 73 72 72 73 67 61 51 49 49 52 55 66 56 54 49 49 50 49 49 51 64 66 68 69 69 71 71 72 73 70

GFSMW_sfc_dewp_045.txt.gz
Dewpoint
62 62 63 63 62 61 61 63 64 66 67 68 66 66 66 67 68 69 70 70 72 72 71 70 70 71 69 69 66 66 63 61 61 60 58 58 60 63 65 66 66 67 67
61 62 62 62 62 62 60 63 64 66 67 66 67 66 66 66 68 68 69 70 71 72 72 71 71 71 70 69 69 67 66 62 61 59 55 53 55 60 62 66 66 66 66
60 61 61 62 61 63 62 62 63 64 67 66 67 69 68 67 67 67 69 70 71 72 72 71 71 71 70 70 69 68 65 58 62 62 58 54 52 57 59 61 65 65 65
60 61 61 61 61 63 64 64 63 64 67 67 66 66 64 63 64 66 67 70 71 72 72 71 71 71 70 69 70 69 67 59 60 60 65 62 57 53 55 57 60 62 64
60 61 60 61 62 62 64 64 64 64 66 67 65 66 64 64 68 67 66 70 71 71 72 72 71 71 71 70 70 69 68 59 59 57 62 61 62 58 54 52 57 61 61
60 61 61 61 62 62 64 64 65 64 65 67 66 65 65 67 67 67 66 67 70 71 72 72 71 71 71 71 70 70 69 67 63 60 60 58 59 59 57 57 56 57 58
59 59 61 61 62 62 64 64 65 65 65 66 67 66 66 66 67 67 66 66 68 69 70 72 71 71 71 71 71 70 70 69 66 64 63 60 57 59 58 57 58 57 58
59 59 59 61 61 62 63 64 65 65 66 67 67 67 66 66 66 67 67 66 67 68 69 71 71 71 72 72 71 71 71 69 70 68 64 64 62 62 61 58 58 55 57
55 57 59 59 60 62 62 64 65 65 66 67 67 67 67 67 67 67 67 66 67 69 69 70 72 72 72 72 71 71 71 71 69 69 68 65 64 65 63 59 59 55 54
55 55 58 58 59 62 63 64 64 65 66 67 67 68 68 68 68 68 67 66 67 69 69 70 71 72 72 72 72 71 71 71 71 70 68 68 67 64 64 64 60 59 56
55 54 56 58 58 62 63 64 64 65 66 67 67 68 68 68 68 69 68 69 67 69 70 71 71 72 72 72 72 72 72 71 71 71 70 68 67 67 65 63 63 60 58
55 54 55 57 58 58 62 64 64 64 65 67 68 68 69 69 70 70 68 68 70 68 69 71 71 72 72 72 71 71 72 72 71 71 71 71 70 67 66 64 62 62 60
53 54 55 56 58 58 60 63 64 65 64 66 68 68 67 68 69 71 71 69 68 69 68 70 71 71 72 72 72 71 71 72 72 72 71 71 70 69 68 66 64 63 62
51 54 55 55 57 58 59 62 64 65 65 66 67 68 69 69 68 68 70 71 70 69 70 69 70 71 72 72 72 72 71 71 72 73 73 72 71 71 70 68 66 64 63
50 53 55 55 57 58 59 62 64 66 66 67 67 68 70 70 70 69 69 70 71 70 70 70 71 71 71 72 72 72 72 71 71 72 72 72 72 70 70 70 68 66 64
52 54 55 55 57 57 58 61 64 66 67 67 68 69 69 70 71 71 70 69 70 72 70 69 70 71 72 68 68 70 71 72 71 71 72 72 71 70 67 67 67 67 66
51 53 54 55 56 58 58 61 64 66 68 68 69 69 70 70 71 72 72 71 70 70 71 71 70 70 71 66 66 68 71 71 71 71 71 71 72 70 72 68 66 65 64
52 53 55 56 57 58 58 60 63 65 68 69 69 70 71 70 71 71 72 72 71 70 70 70 71 71 71 65 64 66 71 72 71 71 71 71 71 71 71 71 71 69 69
57 56 58 59 60 59 59 60 62 64 66 67 69 70 71 71 71 71 71 72 72 72 71 71 70 70 71 63 63 64 71 71 72 72 72 72 71 68 64 71 71 71 71
66 60 57 59 61 61 61 61 62 62 64 66 68 69 70 71 71 72 71 71 72 72 72 72 73 69 70 63 61 64 71 71 71 72 72 66 70 64 62 69 71 70 71
66 69 68 61 59 59 61 61 61 62 62 64 65 68 70 71 71 71 72 72 71 72 71 72 72 73 72 71 60 59 71 71 71 71 71 72 63 60 60 61 72 71 71
62 66 69 69 68 61 63 64 65 67 66 66 65 66 68 70 71 71 71 71 72 71 71 71 72 72 73 66 61 59 61 68 72 72 72 72 62 58 58 60 63 62 63
60 63 65 68 69 69 69 68 68 71 68 68 67 67 68 68 69 70 71 71 71 71 71 71 71 71 73 73 62 59 59 60 69 73 70 64 59 57 58 57 58 58 67
59 61 63 64 66 67 66 66 67 68 70 69 68 70 70 70 69 70 70 70 71 71 70 71 71 72 73 74 73 68 65 61 63 66 70 67 64 62 65 65 64 64 66
55 61 61 62 64 66 65 65 67 68 68 68 69 69 70 68 70 65 65 70 71 69 71 71 72 73 73 73 68 70 72 71 67 68 69 70 70 71 71 71 71 71 69
56 60 61 62 63 65 64 65 68 68 67 66 66 66 70 70 69 64 60 49 47 46 49 53 67 61 55 52 51 50 51 53 53 66 68 68 68 68 68 68 69 70 69

GFSMW_sfc_dewp_048.txt.gz
Dewpoint
62 63 64 64 65 65 65 65 66 67 67 68 67 68 68 69 70 70 72 72 72 73 72 72 72 73 72 71 70 68 66 64 64 64 62 62 63 65 67 67 67 67 69
60 62 63 63 63 63 63 65 66 67 68 68 68 68 67 68 70 70 71 72 72 74 73 72 72 72 72 70 70 69 68 64 64 62 61 59 61 62 63 67 67 67 68
60 61 62 63 62 62 62 64 65 67 68 68 68 69 68 68 69 69 70 71 72 73 73 72 72 72 72 71 71 70 68 62 65 65 62 59 58 60 62 64 66 68 67
61 62 61 62 63 63 63 64 65 66 68 68 68 68 66 65 67 68 69 70 72 72 73 73 72 72 72 72 72 70 69 65 65 64 66 64 62 60 60 61 63 65 66
61 61 61 62 63 63 63 63 65 66 67 68 68 67 67 66 67 68 68 70 71 72 73 73 72 72 72 72 72 71 70 64 64 63 65 65 63 61 59 59 61 63 64
60 61 61 62 62 63 64 64 65 65 67 68 68 67 67 66 67 67 67 68 70 71 72 73 72 72 73 72 71 72 71 68 65 63 65 64 64 62 60 59 60 60 63
60 60 61 61 62 63 64 65 65 65 66 67 68 67 67 67 67 67 67 67 69 70 71 73 72 72 72 73 72 72 72 71 68 66 65 64 63 63 62 62 61 60 61
60 60 61 61 62 63 63 65 65 65 65 66 67 68 67 66 67 68 68 67 68 69 72 72 73 72 73 73 73 72 72 71 71 70 67 66 64 64 64 63 62 61 60
58 61 61 62 62 62 63 64 65 65 66 65 67 67 67 67 67 68 69 68 69 69 71 72 72 73 73 73 73 72 72 72 71 71 71 67 67 66 65 63 63 62 59
56 58 61 61 62 62 63 64 65 65 65 66 66 66 67 68 68 69 68 68 68 70 70 71 72 73 73 73 73 72 72 72 72 71 71 70 69 67 67 65 63 62 62
55 58 60 61 61 62 63 64 64 65 65 66 67 67 67 68 68 68 69 69 68 69 70 71 71 71 72 73 73 73 73 72 72 72 72 71 70 69 68 66 65 63 61
56 56 56 59 60 61 62 63 64 64 65 67 67 67 68 68 68 69 69 69 68 69 70 71 71 72 72 72 72 72 73 72 72 72 72 72 71 70 70 68 67 65 65
55 56 55 56 59 60 61 63 64 64 65 67 67 67 67 68 69 69 70 70 70 69 69 70 71 71 72 73 73 73 72 73 73 73 72 72 72 72 71 70 68 66 65
54 55 56 55 57 60 62 64 64 65 65 66 67 67 68 68 69 70 70 70 70 70 70 70 71 71 72 73 73 73 72 72 72 73 73 73 73 72 72 71 71 70 67
36 52 56 56 58 60 62 64 64 65 65 66 67 67 68 69 69 70 71 72 70 69 70 70 70 71 71 71 73 73 73 72 72 73 73 73 73 70 71 72 72 71 69
39 42 55 56 58 60 60 63 65 65 66 66 66 68 69 69 69 69 70 71 72 71 71 70 70 70 70 67 67 71 72 73 72 72 73 73 71 71 67 67 68 70 70
49 39 53 56 57 59 60 62 65 66 66 66 67 68 69 70 70 70 70 70 70 72 72 71 71 71 72 65 65 67 72 72 72 73 72 72 72 71 73 68 66 67 65
61 53 54 56 58 59 59 62 64 67 67 67 68 69 69 70 71 71 71 71 70 70 71 72 71 71 71 64 63 66 72 72 72 73 73 73 72 73 72 73 73 72 71
66 57 57 58 60 60 61 63 65 66 68 68 69 69 70 70 71 71 71 72 71 71 70 71 72 72 72 63 62 65 71 72 72 73 73 73 73 68 64 72 72 72 72
66 64 61 61 60 61 61 63 64 66 68 69 69 70 71 71 70 71 71 72 73 72 72 71 72 69 72 64 61 63 71 71 71 73 73 66 70 64 61 71 72 72 72
64 67 63 62 62 62 62 63 64 65 67 69 70 71 71 71 72 72 72 72 72 73 73 73 73 73 71 71 60 59 71 71 71 71 72 72 63 60 59 60 72 72 72
61 65 68 68 66 64 63 64 65 67 67 68 69 70 71 71 71 72 73 73 72 72 72 72 73 73 74 65 61 58 60 67 71 72 72 73 62 58 58 59 62 60 62
60 62 65 66 67 69 69 69 70 70 68 67 68 69 71 71 72 72 72 72 72 72 72 72 72 72 73 74 61 59 58 59 68 72 70 64 59 57 58 57 58 58 66
58 60 62 64 65 66 67 67 69 71 70 70 69 69 69 69 71 72 72 72 72 71 72 71 71 72 73 74 74 70 66 60 63 65 69 67 65 63 66 67 65 65 67
59 60 61 63 64 66 66 68 69 69 69 70 70 71 71 70 70 69 68 72 72 69 71 72 72 73 73 73 68 69 73 73 69 69 71 70 71 71 72 72 72 72 71
55 59 61 63 64 65 66 67 69 68 68 68 68 68 71 70 71 65 61 49 48 48 49 53 67 67 57 58 54 52 53 54 55 68 70 70 70 69 69 68 67 67 65